| time (UTC) | temp C | wind direction | speed KPH | gust KPH | rain 1hr cm | rain 24hr cm | rain mn cm | humidity % | barometer mb |
| 20260510071527 | 7 | 250 | 0.0 | 0.0 | 0.00 | 0.00 | 0.00 | 94 | 1014.2 |
| 20260510071025 | 7 | 232 | 0.0 | 0.0 | 0.00 | 0.00 | 0.00 | 94 | 1014.2 |
| 20260510070522 | 7 | 233 | 0.0 | 0.0 | 0.00 | 0.00 | 0.00 | 94 | 1014.1 |
| 20260510070019 | 7 | 280 | 0.0 | 0.0 | 0.00 | 0.00 | 0.00 | 94 | 1014.2 |
| 20260510065515 | 7 | 275 | 0.0 | 0.0 | 0.00 | 0.00 | 0.00 | 94 | 1014.1 |
| 20260510065011 | 7 | 277 | 0.0 | 0.0 | 0.00 | 0.00 | 0.00 | 94 | 1014.1 |
| 20260510064508 | 7 | 260 | 0.0 | 0.0 | 0.00 | 0.00 | 0.00 | 94 | 1014.0 |
| 20260510064005 | 7 | 270 | 0.0 | 0.0 | 0.00 | 0.00 | 0.00 | 93 | 1014.0 |
| 20260510063501 | 7 | 253 | 0.0 | 0.0 | 0.00 | 0.00 | 0.00 | 93 | 1014.2 |
| 20260510062959 | 7 | 310 | 0.0 | 0.0 | 0.00 | 0.00 | 0.00 | 93 | 1014.1 |
| 20260510062454 | 7 | 237 | 0.0 | 0.0 | 0.00 | 0.00 | 0.00 | 93 | 1014.0 |
| 20260510061949 | 7 | 237 | 0.0 | 0.0 | 0.00 | 0.00 | 0.00 | 93 | 1014.1 |
| 20260510061446 | 7 | 237 | 0.0 | 0.0 | 0.00 | 0.00 | 0.00 | 93 | 1014.2 |
| 20260510060943 | 7 | 237 | 0.0 | 0.0 | 0.00 | 0.00 | 0.00 | 93 | 1014.3 |
| 20260510060440 | 7 | 248 | 0.0 | 0.0 | 0.00 | 0.00 | 0.00 | 93 | 1014.3 |
| 20260510055936 | 7 | 248 | 0.0 | 0.0 | 0.00 | 0.00 | 0.00 | 93 | 1014.2 |
| 20260510055432 | 7 | 222 | 0.0 | 0.0 | 0.00 | 0.00 | 0.00 | 93 | 1014.2 |
| 20260510054930 | 7 | 276 | 0.0 | 0.0 | 0.00 | 0.00 | 0.00 | 93 | 1014.4 |
| 20260510054425 | 7 | 272 | 0.0 | 0.0 | 0.00 | 0.00 | 0.00 | 93 | 1014.1 |
| 20260510053921 | 8 | 256 | 0.0 | 0.0 | 0.00 | 0.00 | 0.00 | 93 | 1014.2 |
| 20260510053416 | 7 | 266 | 0.0 | 0.0 | 0.00 | 0.00 | 0.00 | 93 | 1014.2 |
| 20260510052913 | 8 | 265 | 0.0 | 0.0 | 0.00 | 0.00 | 0.00 | 93 | 1014.4 |
| 20260510052409 | 8 | 259 | 0.0 | 0.0 | 0.00 | 0.00 | 0.00 | 93 | 1014.3 |
| 20260510051905 | 8 | 279 | 0.0 | 0.0 | 0.00 | 0.00 | 0.00 | 93 | 1014.4 |
| 20260510051402 | 8 | 287 | 0.0 | 0.0 | 0.00 | 0.00 | 0.00 | 93 | 1014.5 |
| 20260510050858 | 8 | 263 | 0.0 | 0.0 | 0.00 | 0.00 | 0.00 | 93 | 1014.5 |
| 20260510050355 | 8 | 263 | 0.0 | 0.0 | 0.00 | 0.00 | 0.00 | 93 | 1014.6 |
| 20260510045852 | 8 | 263 | 0.0 | 0.0 | 0.00 | 0.00 | 0.00 | 93 | 1014.5 |
| 20260510045349 | 8 | 276 | 0.0 | 0.0 | 0.00 | 0.00 | 0.00 | 93 | 1014.4 |
| 20260510044846 | 8 | 276 | 0.0 | 0.0 | 0.00 | 0.00 | 0.00 | 93 | 1014.2 |
| 20260510044343 | 8 | 291 | 0.0 | 0.0 | 0.00 | 0.00 | 0.00 | 93 | 1014.4 |
| 20260510043839 | 8 | 297 | 0.0 | 0.0 | 0.00 | 0.00 | 0.00 | 93 | 1014.3 |
| 20260510043335 | 8 | 286 | 0.0 | 0.0 | 0.00 | 0.00 | 0.00 | 93 | 1014.3 |
| 20260510042833 | 8 | 294 | 0.0 | 0.0 | 0.00 | 0.00 | 0.00 | 93 | 1014.5 |
| 20260510042329 | 8 | 294 | 0.0 | 0.0 | 0.00 | 0.00 | 0.00 | 93 | 1014.4 |
| 20260510041825 | 8 | 294 | 0.0 | 0.0 | 0.00 | 0.00 | 0.00 | 93 | 1014.3 |
| 20260510041323 | 8 | 298 | 0.0 | 0.0 | 0.00 | 0.00 | 0.00 | 93 | 1014.1 |
| 20260510040820 | 8 | 298 | 0.0 | 0.0 | 0.00 | 0.00 | 0.00 | 93 | 1014.1 |
| 20260510040316 | 8 | 298 | 0.0 | 0.0 | 0.00 | 0.00 | 0.00 | 93 | 1014.3 |
| 20260510035812 | 8 | 298 | 0.0 | 0.0 | 0.00 | 0.58 | 0.58 | 93 | 1014.1 |
| 20260510035308 | 8 | 299 | 0.0 | 0.0 | 0.00 | 0.58 | 0.58 | 93 | 1014.2 |
| 20260510034804 | 8 | 298 | 0.0 | 0.0 | 0.00 | 0.58 | 0.58 | 93 | 1014.2 |
| 20260510034301 | 8 | 298 | 0.0 | 0.0 | 0.00 | 0.58 | 0.58 | 93 | 1014.1 |
| 20260510033758 | 9 | 298 | 0.0 | 0.0 | 0.00 | 0.58 | 0.58 | 93 | 1014.0 |
| 20260510033255 | 8 | 299 | 0.0 | 0.0 | 0.00 | 0.58 | 0.58 | 92 | 1014.1 |
| 20260510032751 | 9 | 300 | 0.0 | 0.0 | 0.00 | 0.58 | 0.58 | 92 | 1014.0 |
| 20260510032248 | 8 | 303 | 0.0 | 0.0 | 0.00 | 0.58 | 0.58 | 92 | 1013.8 |
| 20260510031743 | 9 | 303 | 0.0 | 0.0 | 0.00 | 0.58 | 0.58 | 92 | 1013.9 |
| 20260510031239 | 9 | 304 | 0.0 | 0.0 | 0.00 | 0.58 | 0.58 | 92 | 1013.7 |
| 20260510030739 | 9 | 308 | 0.0 | 0.0 | 0.00 | 0.58 | 0.58 | 92 | 1013.8 |
| 20260510030236 | 9 | 308 | 0.0 | 0.0 | 0.00 | 0.58 | 0.58 | 92 | 1013.6 |
| 20260510025733 | 9 | 308 | 0.0 | 0.0 | 0.00 | 0.58 | 0.58 | 92 | 1013.7 |
| 20260510025231 | 10 | 308 | 0.0 | 0.0 | 0.00 | 0.58 | 0.58 | 92 | 1013.6 |
| 20260510024728 | 9 | 308 | 0.0 | 0.0 | 0.00 | 0.58 | 0.58 | 92 | 1013.6 |
| 20260510024224 | 10 | 308 | 0.0 | 0.0 | 0.00 | 0.58 | 0.58 | 92 | 1013.7 |
| 20260510023719 | 10 | 311 | 0.0 | 0.0 | 0.00 | 0.58 | 0.58 | 91 | 1013.6 |
| 20260510023217 | 10 | 311 | 0.0 | 0.0 | 0.00 | 0.58 | 0.58 | 91 | 1013.6 |
| 20260510022713 | 10 | 311 | 0.0 | 0.0 | 0.00 | 0.58 | 0.58 | 91 | 1013.5 |
| 20260510022208 | 10 | 313 | 0.0 | 0.0 | 0.00 | 0.58 | 0.58 | 91 | 1013.4 |
| 20260510021703 | 10 | 313 | 0.0 | 0.0 | 0.00 | 0.58 | 0.58 | 91 | 1013.5 |
| 20260510021201 | 10 | 313 | 0.0 | 0.0 | 0.00 | 0.58 | 0.58 | 91 | 1013.3 |
| 20260510020655 | 10 | 313 | 0.0 | 0.0 | 0.00 | 0.58 | 0.58 | 91 | 1013.3 |
| 20260510020151 | 10 | 313 | 0.0 | 0.0 | 0.00 | 0.58 | 0.58 | 91 | 1013.2 |
| 20260510015647 | 10 | 313 | 0.0 | 0.0 | 0.00 | 0.58 | 0.58 | 91 | 1013.2 |
| 20260510015144 | 10 | 313 | 0.0 | 0.0 | 0.00 | 0.58 | 0.58 | 90 | 1013.2 |
| 20260510014644 | 11 | 313 | 0.0 | 0.0 | 0.00 | 0.58 | 0.58 | 90 | 1013.0 |
| 20260510014142 | 10 | 313 | 0.0 | 0.0 | 0.00 | 0.58 | 0.58 | 90 | 1012.9 |
| 20260510013636 | 11 | 313 | 0.0 | 0.0 | 0.00 | 0.58 | 0.58 | 90 | 1013.0 |
| 20260510013132 | 11 | 313 | 0.0 | 0.0 | 0.00 | 0.58 | 0.58 | 89 | 1012.8 |
| 20260510012632 | 11 | 312 | 0.0 | 0.0 | 0.00 | 0.58 | 0.58 | 89 | 1012.9 |
| 20260510012128 | 11 | 312 | 0.0 | 0.0 | 0.00 | 0.58 | 0.58 | 89 | 1012.4 |
| 20260510011623 | 11 | 312 | 0.0 | 0.0 | 0.00 | 0.58 | 0.58 | 88 | 1012.6 |
| 20260510011119 | 11 | 312 | 0.0 | 0.0 | 0.00 | 0.58 | 0.58 | 88 | 1012.4 |
| 20260510010615 | 11 | 313 | 0.0 | 0.0 | 0.00 | 0.58 | 0.58 | 88 | 1012.4 |
| 20260510010113 | 11 | 314 | 0.0 | 0.0 | 0.00 | 0.58 | 0.58 | 88 | 1012.4 |
| 20260510005608 | 12 | 311 | 0.0 | 0.0 | 0.00 | 0.58 | 0.58 | 87 | 1012.3 |
| 20260510005106 | 12 | 305 | 0.0 | 0.0 | 0.00 | 0.58 | 0.58 | 87 | 1012.3 |
| 20260510004604 | 12 | 305 | 0.0 | 0.0 | 0.00 | 0.58 | 0.58 | 86 | 1012.4 |
| 20260510004102 | 12 | 306 | 0.0 | 0.0 | 0.00 | 0.58 | 0.58 | 85 | 1012.3 |
| 20260510003558 | 12 | 328 | 0.0 | 0.0 | 0.00 | 0.58 | 0.58 | 85 | 1012.4 |
| 20260510003054 | 13 | 334 | 0.0 | 0.0 | 0.00 | 0.58 | 0.58 | 85 | 1011.9 |
| 20260510002548 | 13 | 309 | 0.0 | 0.0 | 0.00 | 0.58 | 0.58 | 85 | 1012.1 |
| 20260510002046 | 13 | 358 | 0.0 | 0.0 | 0.00 | 0.58 | 0.58 | 85 | 1012.1 |
| 20260510001543 | 13 | 310 | 3.2 | 3.2 | 0.00 | 0.58 | 0.58 | 82 | 1012.1 |
| 20260510001042 | 13 | 357 | 0.0 | 1.6 | 0.00 | 0.58 | 0.58 | 81 | 1011.8 |
| 20260510000542 | 14 | 250 | 0.0 | 0.0 | 0.00 | 0.58 | 0.58 | 80 | 1011.7 |
| 20260510000039 | 15 | 297 | 0.0 | 0.0 | 0.00 | 0.58 | 0.58 | 78 | 1011.6 |
| 20260509235535 | 15 | 272 | 0.0 | 1.6 | 0.00 | 0.58 | 0.58 | 76 | 1011.7 |
| 20260509235032 | 16 | 338 | 0.0 | 1.6 | 0.00 | 0.58 | 0.58 | 73 | 1011.5 |
| 20260509234528 | 16 | 58 | 3.2 | 3.2 | 0.00 | 0.58 | 0.58 | 70 | 1011.3 |
| 20260509234026 | 16 | 260 | 4.8 | 9.7 | 0.00 | 0.58 | 0.58 | 71 | 1011.4 |
| 20260509233523 | 16 | 298 | 1.6 | 3.2 | 0.00 | 0.58 | 0.58 | 69 | 1011.5 |
| 20260509233021 | 16 | 294 | 0.0 | 0.0 | 0.00 | 0.58 | 0.58 | 70 | 1011.5 |
| 20260509232517 | 16 | 322 | 3.2 | 4.8 | 0.00 | 0.58 | 0.58 | 73 | 1011.4 |
| 20260509232014 | 18 | 254 | 0.0 | 0.0 | 0.00 | 0.58 | 0.58 | 61 | 1011.3 |
| 20260509231510 | 18 | 53 | 3.2 | 3.2 | 0.00 | 0.58 | 0.58 | 60 | 1011.5 |
| 20260509231008 | 19 | 283 | 3.2 | 4.8 | 0.00 | 0.58 | 0.58 | 57 | 1011.5 |
| 20260509230505 | 19 | 146 | 1.6 | 4.8 | 0.00 | 0.58 | 0.58 | 56 | 1011.8 |
| 20260509230001 | 19 | 259 | 6.4 | 9.7 | 0.00 | 0.58 | 0.58 | 55 | 1011.6 |
| 20260509225457 | 19 | 291 | 4.8 | 4.8 | 0.00 | 0.58 | 0.58 | 57 | 1011.5 |
| 20260509224953 | 19 | 223 | 4.8 | 9.7 | 0.00 | 0.58 | 0.58 | 56 | 1011.5 |
| 20260509224449 | 20 | 58 | 6.4 | 12.9 | 0.00 | 0.58 | 0.58 | 54 | 1011.7 |
| 20260509223946 | 20 | 72 | 3.2 | 9.7 | 0.00 | 0.58 | 0.58 | 54 | 1011.8 |
| 20260509223442 | 20 | 196 | 1.6 | 6.4 | 0.00 | 0.58 | 0.58 | 53 | 1011.9 |
| 20260509222940 | 20 | 319 | 6.4 | 11.3 | 0.00 | 0.58 | 0.58 | 54 | 1011.8 |
| 20260509222435 | 20 | 160 | 0.0 | 6.4 | 0.00 | 0.58 | 0.58 | 54 | 1011.7 |
| 20260509221931 | 20 | 338 | 4.8 | 6.4 | 0.00 | 0.58 | 0.58 | 54 | 1011.8 |
| 20260509221428 | 19 | 108 | 6.4 | 9.7 | 0.00 | 0.58 | 0.58 | 56 | 1012.1 |
| 20260509220924 | 19 | 18 | 6.4 | 9.7 | 0.00 | 0.58 | 0.58 | 55 | 1012.1 |
| 20260509220420 | 19 | 126 | 11.3 | 17.7 | 0.00 | 0.58 | 0.58 | 54 | 1011.8 |
| 20260509215916 | 19 | 57 | 3.2 | 11.3 | 0.00 | 0.58 | 0.58 | 56 | 1011.9 |
| 20260509215412 | 20 | 239 | 3.2 | 3.2 | 0.00 | 0.58 | 0.58 | 56 | 1012.1 |
| 20260509214909 | 20 | 358 | 0.0 | 11.3 | 0.00 | 0.58 | 0.58 | 55 | 1011.9 |
| 20260509214406 | 20 | 161 | 3.2 | 16.1 | 0.00 | 0.58 | 0.58 | 56 | 1011.8 |
| 20260509213904 | 20 | 276 | 1.6 | 11.3 | 0.00 | 0.58 | 0.58 | 55 | 1011.7 |
| 20260509213359 | 20 | 140 | 3.2 | 16.1 | 0.00 | 0.58 | 0.58 | 57 | 1011.9 |
| 20260509212857 | 19 | 127 | 6.4 | 6.4 | 0.00 | 0.58 | 0.58 | 57 | 1012.1 |
| 20260509212354 | 20 | 188 | 16.1 | 22.5 | 0.00 | 0.58 | 0.58 | 56 | 1012.1 |
| 20260509211850 | 20 | 74 | 6.4 | 12.9 | 0.00 | 0.58 | 0.58 | 54 | 1011.9 |
| 20260509211346 | 20 | 166 | 3.2 | 16.1 | 0.00 | 0.58 | 0.58 | 56 | 1011.9 |
| 20260509210842 | 20 | 230 | 4.8 | 6.4 | 0.00 | 0.58 | 0.58 | 57 | 1012.1 |
| 20260509210340 | 20 | 138 | 9.7 | 12.9 | 0.00 | 0.58 | 0.58 | 59 | 1011.9 |
| 20260509205840 | 19 | 310 | 1.6 | 4.8 | 0.00 | 0.58 | 0.58 | 61 | 1011.8 |
| 20260509205334 | 19 | 169 | 1.6 | 6.4 | 0.00 | 0.58 | 0.58 | 56 | 1011.7 |
| 20260509204831 | 20 | 199 | 12.9 | 16.1 | 0.00 | 0.58 | 0.58 | 57 | 1011.8 |
| 20260509204328 | 19 | 12 | 6.4 | 17.7 | 0.00 | 0.58 | 0.58 | 60 | 1011.8 |
| 20260509203824 | 19 | 135 | 1.6 | 9.7 | 0.00 | 0.58 | 0.58 | 58 | 1011.9 |
| 20260509203321 | 19 | 230 | 3.2 | 14.5 | 0.00 | 0.58 | 0.58 | 60 | 1012.1 |
| 20260509202817 | 19 | 281 | 3.2 | 6.4 | 0.00 | 0.58 | 0.58 | 60 | 1012.2 |
| 20260509202314 | 18 | 172 | 6.4 | 12.9 | 0.00 | 0.58 | 0.58 | 62 | 1012.3 |
| 20260509201813 | 19 | 98 | 0.0 | 4.8 | 0.00 | 0.58 | 0.58 | 61 | 1012.3 |
| 20260509201310 | 18 | 155 | 6.4 | 14.5 | 0.00 | 0.58 | 0.58 | 61 | 1012.2 |
| 20260509200806 | 20 | 269 | 1.6 | 11.3 | 0.00 | 0.58 | 0.58 | 58 | 1012.3 |
| 20260509200302 | 19 | 303 | 1.6 | 16.1 | 0.00 | 0.58 | 0.58 | 63 | 1012.3 |
| 20260509195758 | 19 | 16 | 3.2 | 6.4 | 0.00 | 0.58 | 0.58 | 58 | 1012.6 |
| 20260509195253 | 19 | 247 | 3.2 | 9.7 | 0.00 | 0.58 | 0.58 | 63 | 1012.5 |
| 20260509194748 | 18 | 47 | 4.8 | 12.9 | 0.00 | 0.58 | 0.58 | 59 | 1012.6 |
| 20260509194244 | 18 | 335 | 4.8 | 24.1 | 0.00 | 0.58 | 0.58 | 63 | 1012.8 |
| 20260509193742 | 18 | 212 | 8.0 | 16.1 | 0.00 | 0.58 | 0.58 | 64 | 1012.6 |
| 20260509193241 | 18 | 272 | 4.8 | 14.5 | 0.00 | 0.58 | 0.58 | 60 | 1012.9 |
| 20260509192738 | 18 | 119 | 8.0 | 11.3 | 0.00 | 0.58 | 0.58 | 60 | 1012.6 |
| 20260509192238 | 18 | 122 | 6.4 | 14.5 | 0.00 | 0.58 | 0.58 | 62 | 1012.8 |
| 20260509191734 | 18 | 307 | 14.5 | 16.1 | 0.00 | 0.58 | 0.58 | 61 | 1012.8 |
| 20260509191230 | 18 | 91 | 1.6 | 9.7 | 0.00 | 0.58 | 0.58 | 61 | 1012.8 |
| 20260509190726 | 18 | 82 | 1.6 | 20.9 | 0.00 | 0.58 | 0.58 | 60 | 1012.7 |
| 20260509190223 | 18 | 288 | 0.0 | 16.1 | 0.00 | 0.58 | 0.58 | 58 | 1012.6 |
| 20260509185721 | 17 | 272 | 3.2 | 4.8 | 0.00 | 0.58 | 0.58 | 61 | 1012.7 |
| 20260509185217 | 17 | 103 | 3.2 | 4.8 | 0.00 | 0.58 | 0.58 | 64 | 1012.7 |
| 20260509184715 | 17 | 202 | 12.9 | 16.1 | 0.00 | 0.58 | 0.58 | 60 | 1012.8 |
| 20260509184212 | 18 | 101 | 9.7 | 14.5 | 0.00 | 0.58 | 0.58 | 61 | 1012.6 |
| 20260509183708 | 18 | 263 | 4.8 | 6.4 | 0.00 | 0.58 | 0.58 | 62 | 1012.8 |
| 20260509183209 | 18 | 341 | 3.2 | 3.2 | 0.00 | 0.58 | 0.58 | 71 | 1012.9 |
| 20260509182704 | 17 | 347 | 3.2 | 4.8 | 0.00 | 0.58 | 0.58 | 65 | 1012.8 |
| 20260509182202 | 17 | 186 | 4.8 | 6.4 | 0.00 | 0.58 | 0.58 | 67 | 1012.8 |
| 20260509181700 | 16 | 115 | 3.2 | 6.4 | 0.00 | 0.58 | 0.58 | 71 | 1013.0 |
| 20260509181157 | 17 | 302 | 3.2 | 4.8 | 0.00 | 0.58 | 0.58 | 70 | 1012.9 |
| 20260509180654 | 17 | 302 | 0.0 | 3.2 | 0.00 | 0.58 | 0.58 | 71 | 1012.9 |
| 20260509180150 | 16 | 279 | 0.0 | 3.2 | 0.00 | 0.58 | 0.58 | 71 | 1012.7 |
| 20260509175646 | 16 | 133 | 0.0 | 6.4 | 0.00 | 0.58 | 0.58 | 72 | 1012.9 |
| 20260509175143 | 15 | 211 | 0.0 | 9.7 | 0.00 | 0.58 | 0.58 | 74 | 1012.6 |
| 20260509174639 | 15 | 143 | 0.0 | 3.2 | 0.00 | 0.58 | 0.58 | 74 | 1012.9 |
| 20260509174134 | 15 | 102 | 3.2 | 3.2 | 0.00 | 0.58 | 0.58 | 75 | 1012.8 |
| 20260509173630 | 15 | 253 | 0.0 | 0.0 | 0.00 | 0.58 | 0.58 | 76 | 1012.8 |
| 20260509173126 | 15 | 142 | 1.6 | 6.4 | 0.00 | 0.58 | 0.58 | 78 | 1012.7 |
| 20260509172623 | 15 | 122 | 6.4 | 11.3 | 0.00 | 0.58 | 0.58 | 78 | 1012.9 |
| 20260509172119 | 14 | 14 | 0.0 | 4.8 | 0.00 | 0.58 | 0.58 | 81 | 1013.0 |
| 20260509171615 | 14 | 134 | 0.0 | 4.8 | 0.00 | 0.58 | 0.58 | 81 | 1012.9 |
| 20260509171111 | 14 | 63 | 3.2 | 4.8 | 0.00 | 0.58 | 0.58 | 83 | 1013.0 |
| 20260509170607 | 14 | 216 | 3.2 | 4.8 | 0.00 | 0.58 | 0.58 | 83 | 1012.9 |
| 20260509170103 | 14 | 124 | 3.2 | 4.8 | 0.00 | 0.58 | 0.58 | 82 | 1013.0 |
| 20260509165602 | 13 | 163 | 1.6 | 4.8 | 0.00 | 0.58 | 0.58 | 83 | 1012.9 |
| 20260509165058 | 13 | 212 | 1.6 | 3.2 | 0.00 | 0.58 | 0.58 | 85 | 1012.9 |
| 20260509164554 | 13 | 228 | 3.2 | 6.4 | 0.00 | 0.58 | 0.58 | 85 | 1013.0 |
| 20260509164050 | 13 | 225 | 1.6 | 4.8 | 0.00 | 0.58 | 0.58 | 85 | 1013.0 |
| 20260509163549 | 13 | 121 | 1.6 | 3.2 | 0.00 | 0.58 | 0.58 | 86 | 1013.1 |
| 20260509163049 | 13 | 181 | 1.6 | 1.6 | 0.00 | 0.58 | 0.58 | 85 | 1013.3 |
| 20260509162546 | 13 | 171 | 0.0 | 1.6 | 0.00 | 0.58 | 0.58 | 86 | 1013.1 |
| 20260509162042 | 13 | 174 | 0.0 | 3.2 | 0.00 | 0.58 | 0.58 | 85 | 1013.0 |
| 20260509161538 | 13 | 203 | 3.2 | 3.2 | 0.00 | 0.58 | 0.58 | 85 | 1013.1 |
| 20260509161033 | 13 | 25 | 0.0 | 3.2 | 0.00 | 0.58 | 0.58 | 86 | 1013.2 |
| 20260509160530 | 13 | 16 | 0.0 | 3.2 | 0.00 | 0.58 | 0.58 | 85 | 1013.0 |
| 20260509160025 | 13 | 204 | 1.6 | 3.2 | 0.00 | 0.58 | 0.58 | 85 | 1013.1 |
| 20260509155521 | 13 | 215 | 0.0 | 3.2 | 0.00 | 0.58 | 0.58 | 86 | 1013.3 |
| 20260509155017 | 13 | 166 | 1.6 | 1.6 | 0.00 | 0.58 | 0.58 | 87 | 1013.1 |
| 20260509154514 | 13 | 203 | 3.2 | 4.8 | 0.00 | 0.58 | 0.58 | 86 | 1013.2 |
| 20260509154012 | 12 | 355 | 0.0 | 3.2 | 0.00 | 0.58 | 0.58 | 88 | 1013.1 |
| 20260509153508 | 12 | 182 | 0.0 | 0.0 | 0.00 | 0.58 | 0.58 | 88 | 1013.2 |
| 20260509153005 | 12 | 100 | 1.6 | 1.6 | 0.00 | 0.58 | 0.58 | 87 | 1013.2 |
| 20260509152501 | 12 | 154 | 0.0 | 1.6 | 0.00 | 0.58 | 0.58 | 88 | 1013.1 |
| 20260509151958 | 12 | 190 | 1.6 | 4.8 | 0.00 | 0.58 | 0.58 | 87 | 1013.2 |
| 20260509151454 | 12 | 175 | 1.6 | 4.8 | 0.00 | 0.58 | 0.58 | 86 | 1013.4 |
| 20260509150953 | 12 | 91 | 1.6 | 3.2 | 0.13 | 0.58 | 0.58 | 87 | 1013.5 |
| 20260509150450 | 12 | 223 | 0.0 | 3.2 | 0.13 | 0.58 | 0.58 | 87 | 1013.2 |
| 20260509145948 | 12 | 191 | 0.0 | 3.2 | 0.00 | 0.56 | 0.56 | 88 | 1013.6 |
| 20260509145443 | 12 | 196 | 0.0 | 3.2 | 0.00 | 0.56 | 0.56 | 88 | 1013.3 |
| 20260509144938 | 12 | 110 | 0.0 | 1.6 | 0.00 | 0.56 | 0.56 | 88 | 1013.6 |
| 20260509144436 | 12 | 155 | 0.0 | 0.0 | 0.00 | 0.56 | 0.56 | 88 | 1013.5 |
| 20260509143933 | 12 | 145 | 0.0 | 0.0 | 0.00 | 0.56 | 0.56 | 88 | 1013.4 |
| 20260509143430 | 12 | 176 | 1.6 | 1.6 | 0.00 | 0.56 | 0.56 | 88 | 1013.5 |
| 20260509142926 | 12 | 93 | 0.0 | 0.0 | 0.00 | 0.56 | 0.56 | 88 | 1013.7 |
| 20260509142423 | 11 | 63 | 0.0 | 0.0 | 0.00 | 0.56 | 0.56 | 88 | 1013.5 |
| 20260509141918 | 12 | 53 | 0.0 | 0.0 | 0.00 | 0.56 | 0.56 | 90 | 1013.5 |
| 20260509141416 | 12 | 55 | 0.0 | 0.0 | 0.00 | 0.56 | 0.56 | 90 | 1013.5 |
| 20260509140912 | 11 | 57 | 0.0 | 0.0 | 0.00 | 0.56 | 0.56 | 91 | 1013.6 |
| 20260509140409 | 11 | 59 | 0.0 | 0.0 | 0.00 | 0.56 | 0.56 | 91 | 1013.5 |
| 20260509135907 | 11 | 103 | 0.0 | 0.0 | 0.18 | 0.56 | 0.56 | 91 | 1013.7 |
| 20260509135404 | 11 | 118 | 0.0 | 0.0 | 0.00 | 0.53 | 0.53 | 90 | 1013.7 |
| 20260509134902 | 11 | 118 | 0.0 | 0.0 | 0.13 | 0.53 | 0.53 | 91 | 1013.6 |
| 20260509134359 | 11 | 120 | 0.0 | 0.0 | 0.13 | 0.53 | 0.53 | 91 | 1013.7 |
| 20260509133855 | 11 | 129 | 0.0 | 0.0 | 0.00 | 0.51 | 0.51 | 91 | 1013.8 |
| 20260509133352 | 11 | 151 | 0.0 | 0.0 | 0.18 | 0.51 | 0.51 | 91 | 1013.7 |
| 20260509132851 | 11 | 144 | 0.0 | 0.0 | 0.18 | 0.51 | 0.51 | 91 | 1013.6 |
| 20260509132349 | 11 | 152 | 0.0 | 0.0 | 0.13 | 0.48 | 0.48 | 91 | 1013.7 |
| 20260509131845 | 11 | 150 | 0.0 | 0.0 | 0.13 | 0.48 | 0.48 | 91 | 1013.7 |
| 20260509131342 | 11 | 180 | 0.0 | 0.0 | 0.00 | 0.46 | 0.46 | 91 | 1013.7 |
| 20260509130839 | 11 | 91 | 0.0 | 0.0 | 0.00 | 0.46 | 0.46 | 92 | 1013.7 |
| 20260509130334 | 11 | 96 | 0.0 | 0.0 | 0.00 | 0.46 | 0.46 | 92 | 1013.6 |
| 20260509125831 | 11 | 228 | 0.0 | 0.0 | 0.00 | 0.46 | 0.46 | 92 | 1013.8 |
| 20260509125328 | 11 | 228 | 0.0 | 0.0 | 0.00 | 0.46 | 0.46 | 92 | 1013.8 |
| 20260509124824 | 11 | 231 | 0.0 | 0.0 | 0.18 | 0.46 | 0.46 | 92 | 1013.7 |
| 20260509124321 | 11 | 238 | 0.0 | 0.0 | 0.18 | 0.46 | 0.46 | 92 | 1013.7 |
| 20260509123819 | 11 | 238 | 0.0 | 0.0 | 0.00 | 0.43 | 0.43 | 92 | 1013.6 |
| 20260509123316 | 11 | 238 | 0.0 | 0.0 | 0.13 | 0.43 | 0.43 | 93 | 1014.0 |
| 20260509122811 | 11 | 238 | 0.0 | 0.0 | 0.13 | 0.43 | 0.43 | 93 | 1013.8 |
| 20260509122309 | 11 | 238 | 0.0 | 0.0 | 0.00 | 0.41 | 0.41 | 93 | 1013.9 |
| 20260509121806 | 10 | 226 | 0.0 | 0.0 | 0.18 | 0.41 | 0.41 | 93 | 1014.1 |
| 20260509121303 | 10 | 226 | 0.0 | 0.0 | 0.00 | 0.38 | 0.38 | 93 | 1014.1 |
| 20260509120801 | 10 | 221 | 0.0 | 0.0 | 0.00 | 0.38 | 0.38 | 93 | 1014.1 |
| 20260509120259 | 10 | 261 | 0.0 | 0.0 | 0.13 | 0.38 | 0.38 | 93 | 1014.0 |
| 20260509115757 | 10 | 258 | 0.0 | 0.0 | 0.00 | 0.36 | 0.36 | 93 | 1014.0 |
| 20260509115253 | 10 | 256 | 0.0 | 0.0 | 0.18 | 0.36 | 0.36 | 93 | 1014.0 |
| 20260509114751 | 10 | 202 | 0.0 | 0.0 | 0.18 | 0.36 | 0.36 | 93 | 1014.0 |
| 20260509114250 | 10 | 202 | 0.0 | 0.0 | 0.00 | 0.33 | 0.33 | 93 | 1013.9 |
| 20260509113748 | 10 | 152 | 0.0 | 0.0 | 0.18 | 0.33 | 0.33 | 93 | 1013.9 |
| 20260509113245 | 10 | 148 | 0.0 | 0.0 | 0.18 | 0.33 | 0.33 | 93 | 1014.0 |
| 20260509112741 | 10 | 82 | 0.0 | 0.0 | 0.00 | 0.30 | 0.30 | 93 | 1014.0 |
| 20260509112238 | 10 | 22 | 0.0 | 0.0 | 0.00 | 0.30 | 0.30 | 93 | 1013.9 |
| 20260509111736 | 10 | 22 | 0.0 | 0.0 | 0.00 | 0.30 | 0.30 | 93 | 1013.9 |
| 20260509111232 | 10 | 3 | 0.0 | 0.0 | 0.00 | 0.30 | 0.30 | 92 | 1013.9 |
| 20260509110730 | 10 | 3 | 0.0 | 0.0 | 0.13 | 0.30 | 0.30 | 92 | 1013.8 |
| 20260509110226 | 10 | 15 | 0.0 | 0.0 | 0.13 | 0.30 | 0.30 | 92 | 1013.7 |
| 20260509105725 | 10 | 16 | 0.0 | 0.0 | 0.00 | 0.28 | 0.28 | 92 | 1013.7 |
| 20260509105222 | 10 | 18 | 0.0 | 0.0 | 0.00 | 0.28 | 0.28 | 92 | 1013.7 |
| 20260509104719 | 10 | 18 | 0.0 | 0.0 | 0.00 | 0.28 | 0.28 | 92 | 1013.5 |
| 20260509104216 | 10 | 18 | 0.0 | 0.0 | 0.18 | 0.28 | 0.28 | 92 | 1013.5 |
| 20260509103714 | 10 | 18 | 0.0 | 0.0 | 0.18 | 0.28 | 0.28 | 92 | 1013.5 |
| 20260509103211 | 10 | 18 | 0.0 | 0.0 | 0.00 | 0.25 | 0.25 | 92 | 1013.4 |
| 20260509102709 | 10 | 18 | 0.0 | 0.0 | 0.00 | 0.25 | 0.25 | 92 | 1013.6 |
| 20260509102206 | 10 | 18 | 0.0 | 0.0 | 0.00 | 0.25 | 0.25 | 92 | 1013.6 |
| 20260509101702 | 10 | 18 | 0.0 | 0.0 | 0.00 | 0.25 | 0.25 | 92 | 1013.6 |
| 20260509101158 | 10 | 18 | 0.0 | 0.0 | 0.13 | 0.25 | 0.25 | 92 | 1013.5 |
| 20260509100655 | 10 | 19 | 0.0 | 0.0 | 0.13 | 0.25 | 0.25 | 91 | 1013.7 |
| 20260509100152 | 10 | 19 | 0.0 | 0.0 | 0.00 | 0.23 | 0.23 | 91 | 1013.7 |
| 20260509095650 | 10 | 19 | 0.0 | 0.0 | 0.00 | 0.23 | 0.23 | 91 | 1013.5 |
| 20260509095147 | 10 | 56 | 0.0 | 0.0 | 0.00 | 0.23 | 0.23 | 91 | 1013.9 |
| 20260509094643 | 10 | 56 | 0.0 | 0.0 | 0.18 | 0.23 | 0.23 | 91 | 1013.8 |
| 20260509094140 | 10 | 56 | 0.0 | 0.0 | 0.00 | 0.20 | 0.20 | 91 | 1013.7 |
| 20260509093638 | 10 | 16 | 0.0 | 0.0 | 0.13 | 0.20 | 0.20 | 91 | 1013.8 |
| 20260509093135 | 10 | 16 | 0.0 | 0.0 | 0.13 | 0.20 | 0.20 | 91 | 1013.7 |
| 20260509092633 | 10 | 16 | 0.0 | 0.0 | 0.00 | 0.18 | 0.18 | 90 | 1013.8 |
| 20260509092132 | 10 | 16 | 0.0 | 0.0 | 0.00 | 0.18 | 0.18 | 90 | 1013.9 |
| 20260509091630 | 10 | 16 | 0.0 | 0.0 | 0.18 | 0.18 | 0.18 | 90 | 1014.1 |
| 20260509091125 | 10 | 20 | 0.0 | 0.0 | 0.18 | 0.18 | 0.18 | 90 | 1014.0 |
| 20260509090623 | 10 | 48 | 0.0 | 0.0 | 0.13 | 0.15 | 0.15 | 90 | 1014.1 |
| 20260509090120 | 10 | 48 | 0.0 | 0.0 | 0.13 | 0.15 | 0.15 | 89 | 1014.1 |
| 20260509085617 | 10 | 55 | 0.0 | 0.0 | 0.18 | 0.13 | 0.13 | 89 | 1014.3 |
| 20260509085113 | 10 | 43 | 0.0 | 0.0 | 0.18 | 0.13 | 0.13 | 89 | 1014.3 |
| 20260509084611 | 10 | 44 | 1.6 | 3.2 | 0.00 | 0.10 | 0.10 | 88 | 1014.2 |
| 20260509084108 | 11 | 53 | 3.2 | 3.2 | 0.00 | 0.10 | 0.10 | 87 | 1014.3 |
| 20260509083605 | 11 | 319 | 1.6 | 3.2 | 0.13 | 0.10 | 0.10 | 86 | 1014.4 |
| 20260509083101 | 11 | 65 | 1.6 | 1.6 | 0.13 | 0.10 | 0.10 | 87 | 1014.3 |
| 20260509082559 | 11 | 300 | 0.0 | 1.6 | 0.18 | 0.08 | 0.08 | 86 | 1014.2 |
| 20260509082055 | 11 | 34 | 3.2 | 4.8 | 0.36 | 0.08 | 0.08 | 85 | 1014.0 |
| 20260509081552 | 11 | 58 | 0.0 | 0.0 | 0.30 | 0.05 | 0.05 | 82 | 1014.0 |
| 20260509081049 | 12 | 11 | 3.2 | 4.8 | 0.13 | 0.03 | 0.03 | 79 | 1014.1 |
| 20260509080547 | 12 | 43 | 6.4 | 9.7 | 0.00 | 0.00 | 0.00 | 76 | 1013.9 |
| 20260509080045 | 13 | 66 | 1.6 | 11.3 | 0.00 | 0.00 | 0.00 | 73 | 1014.1 |
| 20260509075542 | 13 | 322 | 4.8 | 25.7 | 0.00 | 0.00 | 0.00 | 70 | 1014.1 |
| 20260509075040 | 13 | 217 | 0.0 | 9.7 | 0.00 | 0.00 | 0.00 | 69 | 1014.2 |
| 20260509074537 | 13 | 114 | 9.7 | 17.7 | 0.00 | 0.00 | 0.00 | 67 | 1014.0 |
| 20260509074033 | 13 | 218 | 16.1 | 27.4 | 0.00 | 0.00 | 0.00 | 66 | 1014.0 |
| 20260509073530 | 11 | 208 | 8.0 | 14.5 | 0.00 | 0.00 | 0.00 | 73 | 1013.7 |
| 20260509073026 | 10 | 243 | 0.0 | 1.6 | 0.00 | 0.00 | 0.00 | 85 | 1013.5 |
| 20260509072523 | 10 | 252 | 0.0 | 0.0 | 0.00 | 0.00 | 0.00 | 85 | 1013.2 |
| 20260509072020 | 10 | 243 | 0.0 | 0.0 | 0.00 | 0.00 | 0.00 | 85 | 1013.2 |